Location: El Álamo
(40.2307°N, 3.9945°W)
Time: 03:44:09
(UTC+00:00)

IRS-1C Rocket - Pass Details

Date: 19 May 2025
Orbit: 798 x 805 km, 98.8° (Epoch: 23 June)

Event Time Altitude Azimuth Distance (km) Brightness Sun altitude
Exits shadow 21:15:28 29° 137° (SE) 1,446 4.8 -17.1°
Maximum altitude 21:18:02 56° 72° (ENE) 949 4.3 -17.4°
Drops below altitude 10° 21:23:11 10° 355° (N) 2,388 7.3 -18.1°
Sets 21:25:33 0° 351° (N) 3,322 8.3 -18.4°
